SCP
0 0 1 1 1 0 0 0 0 0 0 0 0 0 0 0 0 0 0 0 0 0
0 0 0 1 0 0 0 0 0 0 0 0 0 0 0 0 0 0 0 0 0 0
0 0 0 0 0 0 0 0 0 0 0 0 0 0 0 0 0 0 0 0 0 0
0 0 0 0 1 0 0 0 0 0 0 0 0 0 0 0 0 0 0 0 0 0
0 0 0 0 0 0 0 0 0 0 0 0 0 0 0 0 0 0 0 0 0 0
0 0 0 0 0 0 0 0 0 0 0 0 0 0 0 0 0 0 0 0 0 0
0 0 0 0 0 0 0 0 0 0 0 0 0 0 0 0 0 0 0 0 0 0
0 0 0 0 0 0 0 0 0 0 0 0 0 0 0 0 0 0 0 0 0 0
0 0 0 0 0 0 0 0 0 0 0 0 0 0 0 0 0 0 0 0 0 0
0 0 0 0 0 0 0 0 0 0 0 0 0 0 0 0 0 0 0 0 0 0
0 0 0 0 0 0 0 0 0 0 0 0 0 0 0 0 0 0 0 0 0 0
0 0 0 0 0 0 0 0 0 0 0 0 0 0 0 0 0 0 0 0 0 0
0 0 0 0 0 0 0 0 0 0 0 0 0 0 0 0 0 0 0 0 0 0
0 0 0 0 0 0 0 0 0 0 0 0 0 0 0 0 0 0 0 0 0 0
Wind_Speed_500mb
60 66 66 68 72 74 71 70 67 63 62 64 62 67 74 72 71 66 66 67 70 75
51 65 64 71 74 77 77 70 70 64 59 63 63 64 70 73 71 68 66 65 69 72
32 46 59 68 75 76 76 74 74 71 63 62 64 63 68 72 73 70 66 67 67 66
21 32 45 58 63 69 76 82 78 72 65 62 62 61 68 70 69 69 68 65 68 69
9 17 22 36 43 49 57 66 69 64 62 61 62 61 66 68 68 70 67 60 53 54
12 0 14 27 34 48 43 50 54 54 56 59 65 63 60 65 66 63 57 52 54 50
22 21 8 8 24 32 36 33 39 46 53 60 67 64 63 60 56 54 48 46 46 50
35 28 20 12 11 17 25 35 40 43 53 56 68 68 60 55 52 45 43 41 39 42
50 41 34 28 21 14 19 28 43 47 54 59 63 58 44 50 52 42 40 41 39 33
65 61 56 43 37 32 16 10 12 16 44 48 39 49 47 52 48 44 45 41 39 42
59 61 61 58 54 45 38 30 25 16 9 8 16 29 43 54 44 43 45 45 49 52
53 54 55 57 55 54 48 44 41 37 30 18 24 33 21 31 34 42 44 46 47 50
48 50 51 51 50 47 45 44 39 40 38 34 34 33 28 15 5 17 22 30 36 41
48 47 45 42 42 43 44 42 45 45 46 45 44 43 38 38 27 22 9 7 7 8
Wind_Direction_500mb
219 225 228 232 231 236 239 241 243 244 245 245 246 243 245 243 245 248 248 253 256 259
226 230 231 233 237 237 239 242 247 247 249 250 253 246 245 244 246 249 250 256 257 262
236 231 231 235 242 242 245 246 250 252 248 247 252 250 242 243 247 248 250 257 256 256
279 255 242 234 239 246 247 247 248 250 250 249 248 246 239 241 245 246 252 254 256 259
291 262 258 239 233 252 258 257 253 251 249 251 246 243 234 240 242 249 252 251 250 259
37 122 225 238 245 250 256 261 256 252 250 251 245 239 238 241 246 250 245 250 249 256
29 20 349 341 236 248 248 254 272 264 257 253 247 242 241 244 247 238 244 245 251 249
36 32 24 1 315 279 272 260 257 260 268 265 252 240 236 251 232 233 235 239 244 251
43 38 35 27 15 339 298 281 262 252 248 237 238 220 245 235 232 231 236 234 237 247
51 49 45 41 40 37 8 340 258 218 216 220 220 214 213 225 232 230 235 241 245 245
45 50 53 50 48 48 46 45 40 16 6 296 242 221 218 222 220 234 235 245 240 243
43 45 45 49 49 48 45 44 47 48 36 14 329 341 250 225 220 217 225 236 239 239
39 44 44 42 43 50 53 53 51 50 50 45 46 33 14 9 300 201 212 217 226 228
42 43 44 45 45 44 47 54 57 58 56 55 57 57 52 53 48 34 20 89 154 183
Wind_Speed_850mb
60 66 66 68 72 74 71 70 67 63 62 64 62 67 74 72 71 66 66 67 70 75
51 65 64 71 74 77 77 70 70 64 59 63 63 64 70 73 71 68 66 65 69 72
32 46 59 68 75 76 76 74 74 71 63 62 64 63 68 72 73 70 66 67 67 66
21 32 45 58 63 69 76 82 78 72 65 62 62 61 68 70 69 69 68 65 68 69
9 17 22 36 43 49 57 66 69 64 62 61 62 61 66 68 68 70 67 60 53 54
12 0 14 27 34 48 43 50 54 54 56 59 65 63 60 65 66 63 57 52 54 50
22 21 8 8 24 32 36 33 39 46 53 60 67 64 63 60 56 54 48 46 46 50
35 28 20 12 11 17 25 35 40 43 53 56 68 68 60 55 52 45 43 41 39 42
50 41 34 28 21 14 19 28 43 47 54 59 63 58 44 50 52 42 40 41 39 33
65 61 56 43 37 32 16 10 12 16 44 48 39 49 47 52 48 44 45 41 39 42
59 61 61 58 54 45 38 30 25 16 9 8 16 29 43 54 44 43 45 45 49 52
53 54 55 57 55 54 48 44 41 37 30 18 24 33 21 31 34 42 44 46 47 50
48 50 51 51 50 47 45 44 39 40 38 34 34 33 28 15 5 17 22 30 36 41
48 47 45 42 42 43 44 42 45 45 46 45 44 43 38 38 27 22 9 7 7 8
Wind_Direction_850mb
219 225 228 232 231 236 239 241 243 244 245 245 246 243 245 243 245 248 248 253 256 259
226 230 231 233 237 237 239 242 247 247 249 250 253 246 245 244 246 249 250 256 257 262
236 231 231 235 242 242 245 246 250 252 248 247 252 250 242 243 247 248 250 257 256 256
279 255 242 234 239 246 247 247 248 250 250 249 248 246 239 241 245 246 252 254 256 259
291 262 258 239 233 252 258 257 253 251 249 251 246 243 234 240 242 249 252 251 250 259
37 122 225 238 245 250 256 261 256 252 250 251 245 239 238 241 246 250 245 250 249 256
29 20 349 341 236 248 248 254 272 264 257 253 247 242 241 244 247 238 244 245 251 249
36 32 24 1 315 279 272 260 257 260 268 265 252 240 236 251 232 233 235 239 244 251
43 38 35 27 15 339 298 281 262 252 248 237 238 220 245 235 232 231 236 234 237 247
51 49 45 41 40 37 8 340 258 218 216 220 220 214 213 225 232 230 235 241 245 245
45 50 53 50 48 48 46 45 40 16 6 296 242 221 218 222 220 234 235 245 240 243
43 45 45 49 49 48 45 44 47 48 36 14 329 341 250 225 220 217 225 236 239 239
39 44 44 42 43 50 53 53 51 50 50 45 46 33 14 9 300 201 212 217 226 228
42 43 44 45 45 44 47 54 57 58 56 55 57 57 52 53 48 34 20 89 154 183